Weather History for Mandan, ND

Change the Weather History Date:

Thursday, February 21, 2013

  Actual Average (KBIS) Record (KBIS)
Temperature  
Mean Temperature 16 °F 20 °F  
Max Temperature 21 °F 30 °F 59 °F (1961)
Min Temperature 12 °F 10 °F -29 °F (1918)
Degree Days  
Heating Degree Days 48 45  
Month to date heating degree days 1010  
Since 1 July heating degree days 6128  
Cooling Degree Days 0 0  
Month to date cooling degree days 0  
Year to date cooling degree days 0  
Moisture  
Dew Point 13 °F    
Average Humidity 87    
Maximum Humidity 100    
Minimum Humidity 68    
Precipitation  
Precipitation 0.19 in 0.02 in 0.44 in (1931)
Month to date precipitation 0.34  
Year to date precipitation 0.77  
Snow  
Snow 0.00 in 0.40 in 2.40 in (1962)
Month to date snowfall 5.8  
Since 1 July snowfall 35.2  
Snow Depth -    
Sea Level Pressure  
Sea Level Pressure 30.11 in    
Wind  
Wind Speed 10 mph (SE)    
Max Wind Speed 16 mph    
Max Gust Speed 20 mph    
Visibility 8 miles    
Events Snow    
T = Trace of Precipitation, MM = Missing Value Source: NWS Daily Summary

Daily Weather History Graph

Daily Weather History Graph

Search for Another Location

Airport:

Trip Planner

Search our weather history database for the weather conditions in past years. The results will help you decide how hot, cold, wet, or windy it might be!

Date:

Astronomy

Feb. 21, 2013 Rise Set
Actual Time 7:37 AM CST 6:17 PM CST
Civil Twilight 7:06 AM CST 6:48 PM CST
Nautical Twilight 6:31 AM CST 7:24 PM CST
Astronomical Twilight 5:56 AM CST 7:59 PM CST
Moon 2:24 PM CST (2/21) 4:53 AM CST (2/21)
Length of Visible Light 11h 42m
Length of Day
10h 40m
Waxing Gibbous, 84% of the Moon is Illuminated
Feb 21
Waxing Gibbous
Feb 25
Full
Mar 4
Last Quarter
Mar 11
New
Mar 19
First Quarter

Hourly Weather History & Observations

Time (CST) Temp. Windchill Dew Point Humidity Pressure Visibility Wind Dir Wind Speed Gust Speed Precip Events Conditions
12:15 AM 12.2 °F -1.8 °F 10.4 °F 92% 30.12 in 3.0 mi SE 11.5 mph - 0.02 in Snow Light Snow
12:35 AM 12.2 °F 0.7 °F 10.4 °F 92% 30.12 in 2.0 mi SE 8.1 mph - 0.06 in Snow Light Snow
12:55 AM 12.2 °F -1.0 °F 10.4 °F 92% 30.12 in 2.5 mi SE 10.4 mph - 0.10 in Snow Light Snow
1:15 AM 12.2 °F -2.5 °F 12.2 °F 100% 30.11 in 3.0 mi SE 12.7 mph - 0.01 in Snow Light Snow
1:35 AM 12.2 °F -3.1 °F 12.2 °F 100% 30.12 in 8.0 mi SE 13.8 mph - 0.01 in Snow Light Snow
1:55 AM 14.0 °F 1.2 °F 12.2 °F 93% 30.12 in 4.0 mi SE 10.4 mph - 0.02 in Snow Light Snow
2:15 AM 14.0 °F 0.5 °F 12.2 °F 93% 30.12 in 5.0 mi SE 11.5 mph - 0.01 in Snow Light Snow
2:35 AM 14.0 °F 0.5 °F 12.2 °F 93% 30.12 in 2.5 mi SE 11.5 mph - 0.04 in Snow Light Snow
2:55 AM 14.0 °F -0.2 °F 12.2 °F 93% 30.12 in 3.0 mi SE 12.7 mph - 0.06 in Snow Light Snow
3:15 AM 14.0 °F 1.2 °F 12.2 °F 93% 30.12 in 8.0 mi SE 10.4 mph - N/A Snow Light Snow
3:35 AM 14.0 °F 0.5 °F 12.2 °F 93% 30.12 in 7.0 mi SE 11.5 mph - N/A Snow Light Snow
3:55 AM 14.0 °F 0.5 °F 12.2 °F 93% 30.12 in 10.0 mi SE 11.5 mph - N/A   Overcast
4:15 AM 14.0 °F -0.8 °F 12.2 °F 93% 30.11 in 10.0 mi SE 13.8 mph - N/A   Overcast
4:35 AM 14.0 °F -0.8 °F 10.4 °F 86% 30.11 in 9.0 mi SE 13.8 mph - N/A Snow Light Snow
4:55 AM 14.0 °F -0.2 °F 10.4 °F 86% 30.11 in 6.0 mi SE 12.7 mph - N/A Snow Light Snow
5:15 AM 14.0 °F 0.5 °F 12.2 °F 93% 30.11 in 7.0 mi SE 11.5 mph - N/A Snow Light Snow
6:15 AM 14.0 °F 3.9 °F 14.0 °F 100% 30.11 in 10.0 mi SE 6.9 mph - N/A   Overcast
6:35 AM 14.0 °F 2.9 °F 14.0 °F 100% 30.11 in 10.0 mi SE 8.1 mph - N/A   Overcast
6:55 AM 15.8 °F 6.1 °F 14.0 °F 93% 30.11 in 9.0 mi ESE 6.9 mph - N/A Snow Light Snow
7:15 AM 15.8 °F 6.1 °F 14.0 °F 93% 30.11 in 7.0 mi ESE 6.9 mph - N/A Snow Light Snow
7:35 AM 15.8 °F 5.1 °F 14.0 °F 93% 30.12 in 10.0 mi ESE 8.1 mph - N/A   Overcast
7:55 AM 15.8 °F 5.1 °F 14.0 °F 93% 30.13 in 4.0 mi SE 8.1 mph - N/A Snow Light Snow
8:15 AM 15.8 °F 3.4 °F 14.0 °F 93% 30.14 in 3.0 mi SE 10.4 mph - N/A Snow Light Snow
8:35 AM 15.8 °F 3.4 °F 14.0 °F 93% 30.14 in 3.0 mi SE 10.4 mph - N/A Snow Light Snow
8:55 AM 15.8 °F 4.2 °F 14.0 °F 93% 30.14 in 2.5 mi SE 9.2 mph - 0.01 in Snow Light Snow
9:15 AM 15.8 °F 0.9 °F 14.0 °F 93% 30.15 in 3.0 mi SE 15.0 mph - N/A Snow Light Snow
9:35 AM 15.8 °F 0.3 °F 14.0 °F 93% 30.14 in 8.0 mi SE 16.1 mph 19.6 mph N/A   Overcast
9:55 AM 15.8 °F 2.1 °F 14.0 °F 93% 30.14 in 10.0 mi SE 12.7 mph - N/A   Overcast
10:15 AM 14.0 °F 0.5 °F 12.2 °F 93% 30.14 in 10.0 mi SE 11.5 mph - N/A   Overcast
10:35 AM 15.8 °F 2.7 °F 12.2 °F 86% 30.13 in 10.0 mi SE 11.5 mph - N/A   Overcast
10:55 AM 15.8 °F 4.2 °F 12.2 °F 86% 30.14 in 10.0 mi SE 9.2 mph - N/A   Mostly Cloudy
11:15 AM 17.6 °F 6.4 °F 14.0 °F 86% 30.14 in 10.0 mi SE 9.2 mph - N/A   Mostly Cloudy
11:35 AM 17.6 °F 5.7 °F 14.0 °F 86% 30.14 in 10.0 mi SSE 10.4 mph - N/A   Mostly Cloudy
11:55 AM 17.6 °F 5.0 °F 14.0 °F 86% 30.14 in 10.0 mi SE 11.5 mph - N/A   Mostly Cloudy
12:15 PM 17.6 °F 4.3 °F 14.0 °F 86% 30.14 in 7.0 mi SE 12.7 mph - N/A Snow Light Snow
12:35 PM 17.6 °F 4.3 °F 15.8 °F 93% 30.14 in 5.0 mi SE 12.7 mph - N/A Snow Light Snow
12:55 PM 19.4 °F 7.9 °F 15.8 °F 86% 30.14 in 5.0 mi SE 10.4 mph - N/A Snow Light Snow
1:15 PM 19.4 °F 6.6 °F 15.8 °F 86% 30.13 in 6.0 mi SE 12.7 mph - N/A Snow Light Snow
1:35 PM 19.4 °F 7.2 °F 15.8 °F 86% 30.13 in 8.0 mi SE 11.5 mph - N/A Snow Light Snow
1:55 PM 19.4 °F 7.9 °F 15.8 °F 86% 30.12 in 10.0 mi SE 10.4 mph - N/A   Mostly Cloudy
2:15 PM 19.4 °F 7.9 °F 15.8 °F 86% 30.11 in 10.0 mi SE 10.4 mph - N/A   Overcast
2:35 PM 21.2 °F 9.5 °F 14.0 °F 74% 30.10 in 10.0 mi SE 11.5 mph - N/A   Overcast
2:55 PM 21.2 °F 11.7 °F 14.0 °F 74% 30.09 in 10.0 mi SE 8.1 mph - N/A   Overcast
3:15 PM 21.2 °F 12.6 °F 14.0 °F 74% 30.09 in 10.0 mi SE 6.9 mph - N/A   Overcast
3:35 PM 21.2 °F 13.6 °F 14.0 °F 74% 30.09 in 10.0 mi SSE 5.8 mph - N/A   Overcast
3:55 PM 21.2 °F 11.7 °F 12.2 °F 68% 30.09 in 10.0 mi SE 8.1 mph - N/A   Mostly Cloudy
4:15 PM 21.2 °F 11.7 °F 12.2 °F 68% 30.09 in 10.0 mi SE 8.1 mph - N/A   Scattered Clouds
4:35 PM 21.2 °F 10.9 °F 12.2 °F 68% 30.09 in 10.0 mi ESE 9.2 mph - N/A   Clear
4:55 PM 21.2 °F 12.6 °F 12.2 °F 68% 30.08 in 10.0 mi ESE 6.9 mph - N/A   Clear
5:15 PM 19.4 °F 7.9 °F 14.0 °F 80% 30.08 in 10.0 mi East 10.4 mph - N/A   Clear
5:35 PM 19.4 °F 7.9 °F 14.0 °F 80% 30.09 in 10.0 mi ESE 10.4 mph - N/A   Clear
5:55 PM 19.4 °F 10.4 °F 14.0 °F 80% 30.09 in 10.0 mi East 6.9 mph - N/A   Mostly Cloudy
6:15 PM 17.6 °F 6.4 °F 14.0 °F 86% 30.09 in 10.0 mi East 9.2 mph - N/A   Overcast
6:35 PM 17.6 °F 5.7 °F 12.2 °F 79% 30.09 in 10.0 mi ESE 10.4 mph - N/A   Overcast
6:55 PM 17.6 °F 5.0 °F 12.2 °F 79% 30.09 in 10.0 mi ESE 11.5 mph - N/A   Overcast
7:15 PM 17.6 °F 5.7 °F 14.0 °F 86% 30.10 in 10.0 mi ESE 10.4 mph - N/A   Overcast
7:35 PM 15.8 °F 4.2 °F 12.2 °F 86% 30.10 in 10.0 mi SE 9.2 mph - N/A   Overcast
7:55 PM 15.8 °F 6.1 °F 12.2 °F 86% 30.10 in 10.0 mi ESE 6.9 mph - N/A   Overcast
8:15 PM 15.8 °F 5.1 °F 12.2 °F 86% 30.10 in 10.0 mi SE 8.1 mph - N/A   Overcast
8:35 PM 15.8 °F 5.1 °F 12.2 °F 86% 30.10 in 10.0 mi SE 8.1 mph - N/A   Overcast
8:55 PM 15.8 °F 5.1 °F 12.2 °F 86% 30.10 in 10.0 mi SE 8.1 mph - N/A   Overcast
9:15 PM 15.8 °F 6.1 °F 12.2 °F 86% 30.09 in 10.0 mi SE 6.9 mph - N/A   Overcast
9:35 PM 15.8 °F 6.1 °F 12.2 °F 86% 30.09 in 10.0 mi ESE 6.9 mph - N/A   Overcast
9:55 PM 15.8 °F 8.6 °F 12.2 °F 86% 30.09 in 10.0 mi SE 4.6 mph - N/A   Overcast
10:15 PM 15.8 °F 7.2 °F 12.2 °F 86% 30.08 in 10.0 mi SE 5.8 mph - N/A   Overcast
10:35 PM 15.8 °F 6.1 °F 10.4 °F 79% 30.07 in 10.0 mi SE 6.9 mph - N/A   Overcast
10:55 PM 15.8 °F 4.2 °F 12.2 °F 86% 30.07 in 10.0 mi SE 9.2 mph - N/A   Overcast
11:15 PM 14.0 °F 1.2 °F 10.4 °F 86% 30.07 in 10.0 mi SE 10.4 mph - N/A   Overcast
11:35 PM 14.0 °F 1.2 °F 8.6 °F 79% 30.08 in 10.0 mi SSE 10.4 mph - N/A   Overcast
11:55 PM 14.0 °F 1.2 °F 8.6 °F 79% 30.07 in 10.0 mi SSE 10.4 mph - N/A   Overcast